Manistique, MI

6:07 PM EST on December 06, 2016 (GMT -0500)
Schoolcraft County

Weather History for KISQ - July, 2012

Change the Weather History Date:

Friday, July 13, 2012

  Actual Average Record
Temperature  
Mean Temperature 70 °F -  
Max Temperature 80 °F 73 °F 89 °F (2005)
Min Temperature 60 °F 54 °F 46 °F (1962)
Cooling Degree Days 5    
Growing Degree Days 20 (Base 50)    
Moisture  
Dew Point 64 °F    
Average Humidity 74    
Maximum Humidity 94    
Minimum Humidity 51    
Precipitation  
Precipitation 0.00 in - - ()
Sea Level Pressure  
Sea Level Pressure 30.07 in    
Wind  
Wind Speed 5 mph (SSE)    
Max Wind Speed 10 mph    
Max Gust Speed -    
Visibility 9 miles    
Events Fog    
Averages and records for this station are not official NWS values.
T = Trace of Precipitation, MM = Missing Value Source: NWS Daily Summary

Daily Weather History Graph

Daily Weather History Graph

Search for Another Location

Airport or City:

Trip Planner

Search our weather history database for the weather conditions in past years. The results will help you decide how hot, cold, wet, or windy it might be!

Date:

Astronomy

Jul. 13, 2012 Rise Set
Actual Time 6:07 AM EDT 9:33 PM EDT
Civil Twilight 5:30 AM EDT 10:10 PM EDT
Nautical Twilight 4:41 AM EDT 10:58 PM EDT
Astronomical Twilight 3:38 AM EDT 12:01 AM EDT
Moon 1:48 AM EDT (7/13) 4:59 PM EDT (7/13)
Length of Visible Light 16h 39m
Length of Day
15h 25m
Waning Crescent, 26% of the Moon is Illuminated
Jul 13
Waning Crescent
Jul 19
New
Jul 26
First Quarter
Aug 1
Full
Aug 9
Last Quarter

Hourly Weather History & Observations

Time (EDT) Temp. Heat Index Dew Point Humidity Pressure Visibility Wind Dir Wind Speed Gust Speed Precip Events Conditions
12:15 AM 62.6 °F - 60.8 °F 94% 30.08 in 4.0 mi SE 4.6 mph - N/A   Clear
12:35 AM 64.4 °F - 62.6 °F 94% 30.09 in 10.0 mi SSE 4.6 mph - N/A   Clear
12:54 AM 66.2 °F - 62.6 °F 88% 30.08 in 7.0 mi SSE 5.8 mph - N/A   Clear
1:15 AM 66.2 °F - 64.4 °F 94% 30.09 in 5.0 mi SSE 3.5 mph - N/A   Clear
1:34 AM 64.4 °F - 62.6 °F 94% 30.09 in 0.5 mi Calm Calm - N/A Fog Fog
1:54 AM 64.4 °F - 62.6 °F 94% 30.09 in 0.2 mi SSE 4.6 mph - N/A Fog Fog
2:15 AM 66.2 °F - 64.4 °F 94% 30.09 in 7.0 mi South 4.6 mph - N/A   Clear
2:34 AM 66.2 °F - 64.4 °F 94% 30.09 in 7.0 mi South 3.5 mph - N/A   Clear
2:54 AM 64.4 °F - 62.6 °F 94% 30.09 in 1.5 mi South 3.5 mph - N/A   Mist
3:15 AM 66.2 °F - 64.4 °F 94% 30.09 in 10.0 mi South 5.8 mph - N/A   Clear
3:34 AM 66.2 °F - 64.4 °F 94% 30.09 in 10.0 mi South 3.5 mph - N/A   Clear
3:55 AM 64.4 °F - 62.6 °F 94% 30.09 in 7.0 mi South 3.5 mph - N/A   Clear
4:15 AM 62.6 °F - 60.8 °F 94% 30.08 in 10.0 mi South 3.5 mph - N/A   Clear
4:34 AM 64.4 °F - 60.8 °F 88% 30.09 in 10.0 mi South 3.5 mph - N/A   Clear
4:55 AM 64.4 °F - 62.6 °F 94% 30.09 in 10.0 mi South 4.6 mph - N/A   Clear
5:14 AM 64.4 °F - 62.6 °F 94% 30.09 in 10.0 mi South 4.6 mph - N/A   Clear
5:35 AM 64.4 °F - 62.6 °F 94% 30.09 in 10.0 mi South 3.5 mph - N/A   Clear
5:55 AM 64.4 °F - 60.8 °F 88% 30.09 in 10.0 mi SSE 3.5 mph - N/A   Clear
6:14 AM 60.8 °F - 57.2 °F 88% 30.09 in 10.0 mi SSE 3.5 mph - N/A   Clear
6:35 AM 62.6 °F - 59.0 °F 88% 30.09 in 7.0 mi SSE 3.5 mph - N/A   Clear
6:54 AM 62.6 °F - 59.0 °F 88% 30.09 in 10.0 mi SSE 4.6 mph - N/A   Clear
7:15 AM 68.0 °F - 64.4 °F 88% 30.09 in 10.0 mi SE 4.6 mph - N/A   Clear
7:34 AM 69.8 °F - 66.2 °F 88% 30.08 in 10.0 mi SSE 4.6 mph - N/A   Clear
7:55 AM 71.6 °F - 66.2 °F 83% 30.09 in 10.0 mi SSE 5.8 mph - N/A   Clear
8:15 AM 71.6 °F - 66.2 °F 83% 30.09 in 10.0 mi SSE 5.8 mph - N/A   Clear
8:34 AM 73.4 °F - 66.2 °F 78% 30.09 in 10.0 mi SSE 5.8 mph - N/A   Clear
8:55 AM 73.4 °F - 66.2 °F 78% 30.09 in 10.0 mi SSE 6.9 mph - N/A   Clear
9:14 AM 75.2 °F - 66.2 °F 73% 30.09 in 10.0 mi SE 6.9 mph - N/A   Clear
9:35 AM 75.2 °F - 68.0 °F 78% 30.09 in 10.0 mi SSE 6.9 mph - N/A   Clear
9:55 AM 75.2 °F - 66.2 °F 73% 30.10 in 10.0 mi SSE 6.9 mph - N/A   Clear
10:14 AM 77.0 °F - 66.2 °F 69% 30.10 in 10.0 mi South 8.1 mph - N/A   Clear
10:35 AM 77.0 °F - 66.2 °F 69% 30.10 in 10.0 mi South 6.9 mph - N/A   Clear
10:54 AM 77.0 °F - 66.2 °F 69% 30.10 in 10.0 mi South 10.4 mph - N/A   Clear
11:15 AM 78.8 °F - 64.4 °F 61% 30.10 in 10.0 mi South 9.2 mph - N/A   Clear
11:35 AM 78.8 °F - 64.4 °F 61% 30.10 in 10.0 mi South 9.2 mph - N/A   Clear
11:54 AM 78.8 °F - 62.6 °F 57% 30.10 in 10.0 mi South 9.2 mph - N/A   Clear
12:15 PM 78.8 °F - 62.6 °F 57% 30.10 in 10.0 mi South 8.1 mph - N/A   Clear
12:34 PM 78.8 °F - 62.6 °F 57% 30.10 in 10.0 mi South 9.2 mph - N/A   Clear
12:55 PM 78.8 °F - 62.6 °F 57% 30.10 in 10.0 mi South 9.2 mph - N/A   Clear
1:14 PM 78.8 °F - 60.8 °F 54% 30.10 in 10.0 mi South 9.2 mph - N/A   Clear
1:34 PM 78.8 °F - 62.6 °F 57% 30.09 in 10.0 mi South 6.9 mph - N/A   Clear
1:55 PM 80.6 °F 81.5 °F 60.8 °F 51% 30.09 in 10.0 mi South 8.1 mph - N/A   Clear
2:14 PM 80.6 °F 81.8 °F 62.6 °F 54% 30.09 in 10.0 mi SSE 8.1 mph - N/A   Clear
2:35 PM 80.6 °F 82.3 °F 64.4 °F 58% 30.08 in 10.0 mi SSE 8.1 mph - N/A   Clear
2:55 PM 80.6 °F 81.8 °F 62.6 °F 54% 30.09 in 10.0 mi South 10.4 mph - N/A   Clear
3:14 PM 80.6 °F 81.8 °F 62.6 °F 54% 30.08 in 10.0 mi SSE 6.9 mph - N/A   Clear
3:35 PM 78.8 °F - 64.4 °F 61% 30.08 in 10.0 mi South 9.2 mph - N/A   Clear
3:54 PM 78.8 °F - 64.4 °F 61% 30.08 in 10.0 mi South 8.1 mph - N/A   Clear
4:15 PM 78.8 °F - 64.4 °F 61% 30.07 in 10.0 mi South 9.2 mph - N/A   Clear
4:34 PM 78.8 °F - 64.4 °F 61% 30.07 in 10.0 mi South 8.1 mph - N/A   Clear
4:55 PM 80.6 °F 82.3 °F 64.4 °F 58% 30.06 in 10.0 mi South 5.8 mph - N/A   Clear
5:15 PM 80.6 °F 82.3 °F 64.4 °F 58% 30.05 in 10.0 mi South 6.9 mph - N/A   Clear
5:34 PM 80.6 °F 82.3 °F 64.4 °F 58% 30.04 in 10.0 mi SE 6.9 mph - N/A   Clear
5:55 PM 80.6 °F 82.3 °F 64.4 °F 58% 30.04 in 10.0 mi SSE 6.9 mph - N/A   Clear
6:14 PM 80.6 °F 82.3 °F 64.4 °F 58% 30.04 in 10.0 mi SSE 5.8 mph - N/A   Clear
6:34 PM 78.8 °F - 64.4 °F 61% 30.03 in 10.0 mi SE 5.8 mph - N/A   Clear
6:55 PM 78.8 °F - 64.4 °F 61% 30.03 in 10.0 mi SE 6.9 mph - N/A   Clear
7:14 PM 78.8 °F - 66.2 °F 65% 30.02 in 10.0 mi ESE 5.8 mph - N/A   Clear
7:34 PM 78.8 °F - 66.2 °F 65% 30.02 in 10.0 mi ESE 5.8 mph - N/A   Clear
7:55 PM 78.8 °F - 64.4 °F 61% 30.02 in 10.0 mi SE 5.8 mph - N/A   Clear
8:14 PM 77.0 °F - 64.4 °F 65% 30.02 in 10.0 mi ESE 4.6 mph - N/A   Clear
8:35 PM 75.2 °F - 62.6 °F 65% 30.01 in 10.0 mi ESE 4.6 mph - N/A   Clear
8:54 PM 75.2 °F - 64.4 °F 69% 30.01 in 10.0 mi ESE 4.6 mph - N/A   Clear
9:15 PM 75.2 °F - 62.6 °F 65% 30.02 in 10.0 mi ESE 6.9 mph - N/A   Clear
9:34 PM 73.4 °F - 66.2 °F 78% 30.02 in 10.0 mi ESE 6.9 mph - N/A   Clear
9:54 PM 73.4 °F - 66.2 °F 78% 30.03 in 10.0 mi ESE 4.6 mph - N/A   Clear
10:15 PM 73.4 °F - 66.2 °F 78% 30.03 in 10.0 mi SE 6.9 mph - N/A   Clear
10:34 PM 73.4 °F - 64.4 °F 73% 30.03 in 10.0 mi SSE 5.8 mph - N/A   Clear
10:55 PM 73.4 °F - 64.4 °F 73% 30.03 in 10.0 mi SSE 6.9 mph - N/A   Clear
11:15 PM 71.6 °F - 66.2 °F 83% 30.03 in 10.0 mi Calm Calm - N/A   Clear
11:34 PM 71.6 °F - 66.2 °F 83% 30.02 in 10.0 mi ESE 3.5 mph - N/A   Clear
11:55 PM 71.6 °F - 64.4 °F 78% 30.02 in 10.0 mi SE 4.6 mph - N/A   Clear